{"data":{"norad_id":57196,"intl_designator":"2023-091AG","name":"HORS 2","alt_names":[],"object_type":"PAYLOAD","status":"ACTIVE","operator":null,"country":"CIS","launch_date":"2023-06-27","launch_site_code":"VOSTO","launch_vehicle":null,"mission":null,"orbit_class":"UNKNOWN","rcs_meters":null,"size_class":null,"mass_kg":null,"dimensions":null,"purposes":[],"wikipedia_slug":null,"has_3d_model":false,"image_url":null,"decayed_at":null,"tle_current":{"epoch":"2026-05-25T03:59:43.764000Z","epoch_age_seconds":60769,"freshness":"FRESH","line1":"1 57196U 23091AG  26145.16647875  .00012917  00000+0  43030-3 0  9997","line2":"2 57196  97.5099 211.8926 0009156 156.4669 203.6992 15.31210229161001","mean_motion":15.31210229,"eccentricity":0.0009156,"inclination_deg":97.5099,"raan_deg":211.8926,"arg_perigee_deg":156.4669,"mean_anomaly_deg":203.6992,"bstar":0.0004303,"rev_number":16100,"period_min":94.043258902498,"perigee_km":465.92819734134,"apogee_km":478.47253512639,"semimajor_km":6850.3373662339,"source":"CELESTRAK","updated_at":"2026-05-25T13:37:59.915321Z"}}}